Location: *
(40.4000°N, 15.1200°E)
Time: 20:39:01
(UTC+00:00)

COSMOS 2406 - Pass Details

Date: 09 April 2020
Orbit: 842 x 865 km, 71.0° (Epoch: 24 May)

Event Time Altitude Azimuth Distance (km) Brightness Sun altitude
Exits shadow 19:13:13 30° 94° (E) 1,473 4.0 -18.8°
Drops below altitude 10° 19:17:38 10° 44° (NE) 2,482 5.5 -19.5°
Sets 19:20:20 0° 34° (NE) 3,426 6.3 -19.9°
